Dyersburg, TN

8:10 AM CST on December 08, 2019 (GMT -0600)
Dyersburg Municipal

Weather History for KDYR - October, 2019

Change the Weather History Date:

Thursday, October 3, 2019

  Actual Average Record
Temperature  
Mean Temperature 80 °F -  
Max Temperature 93 °F 74 °F 91 °F (2006)
Min Temperature 66 °F 52 °F 39 °F (2003)
Cooling Degree Days 14    
Growing Degree Days 30 (Base 50)    
Moisture  
Dew Point 68 °F    
Average Humidity 71    
Maximum Humidity 100    
Minimum Humidity 44    
Precipitation  
Precipitation 0.00 in - - ()
Sea Level Pressure  
Sea Level Pressure 30.07 in    
Wind  
Wind Speed 3 mph ()    
Max Wind Speed 13 mph    
Max Gust Speed 18 mph    
Visibility 9.7 miles    
Events      
Averages and records for this station are not official NWS values.
T = Trace of Precipitation, MM = Missing Value Source: Averaged Metar Reports

Daily Weather History Graph

Daily Weather History Graph

Search for Another Location

Airport or City:

Astronomy

Oct. 03, 2019 Rise Set
Actual Time 6:54 AM CDT 6:38 PM CDT
Civil Twilight 6:28 AM CDT 7:04 PM CDT
Nautical Twilight 5:58 AM CDT 7:33 PM CDT
Astronomical Twilight 5:29 AM CDT 8:03 PM CDT
Moon 12:16 PM CDT (10/3) 10:27 PM CDT (10/3)
Length of Visible Light 12h 35m
Length of Day
11h 44m
Waxing Crescent, 30% of the Moon is Illuminated
Oct 3
Waxing Crescent
Oct 5
First Quarter
Oct 13
Full
Oct 21
Last Quarter
Oct 27
New

Hourly Weather History & Observations

Time (CDT) Temp. Heat Index Dew Point Humidity Pressure Visibility Wind Dir Wind Speed Gust Speed Precip Events Conditions
12:56 AM 70.0 °F - 68.0 °F 93% 30.01 in 10.0 mi Calm Calm - N/A   Clear
1:56 AM 70.0 °F - 68.0 °F 93% 30.02 in 10.0 mi Calm Calm - N/A   Clear
2:56 AM 69.1 °F - 66.9 °F 93% 30.02 in 10.0 mi Calm Calm - N/A   Clear
3:56 AM 69.1 °F - 68.0 °F 96% 30.02 in 7.0 mi Calm Calm - N/A   Clear
4:56 AM 68.0 °F - 66.9 °F 96% 30.04 in 10.0 mi Calm Calm - N/A   Clear
5:56 AM 68.0 °F - 66.9 °F 96% 30.05 in 10.0 mi Calm Calm - N/A   Clear
6:56 AM 66.9 °F - 66.9 °F 100% 30.07 in 7.0 mi Calm Calm - N/A   Clear
7:56 AM 71.1 °F - 69.1 °F 93% 30.09 in 10.0 mi Calm Calm - N/A   Clear
9:56 AM 84.0 °F 88.4 °F 70.0 °F 63% 30.09 in 10.0 mi West 3.5 mph - N/A   Clear
10:56 AM 88.0 °F 92.1 °F 69.1 °F 53% 30.10 in 10.0 mi NNW 8.1 mph - N/A   Clear
11:56 AM 89.1 °F 94.1 °F 70.0 °F 53% 30.10 in 10.0 mi North 9.2 mph - N/A   Clear
12:56 PM 91.0 °F 96.6 °F 70.0 °F 50% 30.09 in 10.0 mi Variable 6.9 mph - N/A   Clear
1:56 PM 93.0 °F 97.9 °F 69.1 °F 45% 30.07 in 10.0 mi WNW 10.4 mph - N/A   Scattered Clouds
2:56 PM 91.9 °F 96.9 °F 69.1 °F 47% 30.06 in 10.0 mi NNW 6.9 mph - N/A   Mostly Cloudy
3:56 PM 93.9 °F 99.1 °F 69.1 °F 44% 30.05 in 10.0 mi NNW 9.2 mph - N/A   Scattered Clouds
4:56 PM 91.9 °F 96.9 °F 69.1 °F 47% 30.05 in 10.0 mi NNW 9.2 mph - N/A   Clear
5:56 PM 89.1 °F 94.1 °F 70.0 °F 53% 30.04 in 10.0 mi NNW 6.9 mph - N/A   Clear
6:56 PM 82.9 °F 87.0 °F 70.0 °F 65% 30.05 in 10.0 mi Calm Calm - N/A   Clear
7:56 PM 82.0 °F 86.7 °F 72.0 °F 71% 30.07 in 10.0 mi North 5.8 mph - N/A   Clear
8:56 PM 80.1 °F 82.9 °F 69.1 °F 69% 30.11 in 10.0 mi NNE 11.5 mph 18.4 mph N/A   Clear
9:56 PM 77.0 °F - 66.9 °F 71% 30.13 in 10.0 mi North 10.4 mph - N/A   Clear
10:56 PM 75.0 °F - 63.0 °F 66% 30.15 in 10.0 mi NNE 10.4 mph - N/A   Clear
11:56 PM 72.0 °F - 61.0 °F 68% 30.16 in 10.0 mi North 12.7 mph - N/A   Clear